{"data":{"norad_id":57458,"intl_designator":"2023-107B","name":"STARLINK-30140","alt_names":[],"object_type":"PAYLOAD","status":"ACTIVE","operator":null,"country":"US","launch_date":"2023-07-28","launch_site_code":"AFETR","launch_vehicle":null,"mission":null,"orbit_class":"UNKNOWN","rcs_meters":null,"size_class":null,"mass_kg":null,"dimensions":null,"purposes":["comms"],"wikipedia_slug":null,"has_3d_model":false,"image_url":null,"decayed_at":null,"tle_current":{"epoch":"2026-05-25T00:42:33.492384Z","epoch_age_seconds":79401,"freshness":"FRESH","line1":"1 57458U 23107B   26145.02955431 -.00000929  00000+0 -24261-4 0  9999","line2":"2 57458  43.0014 268.2736 0000906 282.2072  77.8678 15.27578530156788","mean_motion":15.2757853,"eccentricity":9.06e-5,"inclination_deg":43.0014,"raan_deg":268.2736,"arg_perigee_deg":282.2072,"mean_anomaly_deg":77.8678,"bstar":-2.4261e-5,"rev_number":15678,"period_min":94.266839427234,"perigee_km":482.43187389292,"apogee_km":483.67512161111,"semimajor_km":6861.190497752,"source":"CELESTRAK","updated_at":"2026-05-25T13:38:18.323206Z"}}}